Temperature
18 17 17 17 17 17 17 17 17 17 17 17 17 17 17 17 17 17 17 17 17 17 17 17 17 17 17 16 16 16 16 16 16 16 16 16 16 16 16 16 16 15 15
18 17 17 17 17 17 17 17 17 17 17 17 17 17 17 17 17 17 17 17 17 17 17 17 17 17 16 16 16 16 16 16 16 16 16 16 16 16 16 16 16 15 15
17 17 17 17 17 17 17 17 17 17 17 17 17 17 17 17 17 17 17 17 17 17 16 16 16 16 16 16 16 16 16 16 16 16 16 16 16 16 16 16 16 15 15
18 17 17 17 17 17 17 17 17 17 17 17 17 17 17 17 17 17 17 17 17 17 16 16 16 16 16 16 16 16 16 16 16 16 16 16 16 16 16 16 16 15 15
17 17 17 17 17 17 17 17 17 17 17 17 17 17 17 17 17 17 17 16 16 16 16 16 16 16 16 16 16 16 16 16 16 16 16 16 16 16 16 15 15 15 15
17 17 17 17 17 17 17 17 17 17 17 17 17 17 17 17 17 16 16 16 16 16 16 16 16 16 16 16 16 16 16 16 16 16 16 16 15 15 15 15 15 15 15
17 17 17 17 17 17 17 17 17 17 17 17 17 17 17 17 17 16 16 16 16 16 16 16 16 16 16 16 16 16 16 16 16 16 16 15 15 15 15 15 15 15 15
17 17 17 17 17 17 17 17 17 17 17 17 17 17 17 16 17 17 16 16 16 16 16 16 16 16 16 16 16 16 15 15 15 15 15 15 15 15 15 15 15 15 15
17 17 17 17 17 17 17 17 17 17 17 17 17 17 17 17 17 17 17 16 16 16 16 16 16 16 16 16 16 16 15 15 15 15 15 15 15 15 15 15 15 15 15
17 17 17 17 17 17 17 17 16 16 16 17 17 17 17 17 17 17 17 16 16 16 16 16 16 16 16 16 16 15 15 15 15 15 15 15 15 15 15 15 15 15 15
17 17 17 17 17 17 17 16 16 16 16 17 17 17 17 17 17 17 17 17 16 16 16 16 16 16 16 16 16 15 15 15 15 15 15 15 15 15 15 15 15 15 15
17 17 17 17 17 17 16 16 16 16 16 16 17 17 17 17 17 17 17 17 17 17 17 16 16 16 16 16 16 16 15 15 15 15 15 15 15 15 15 15 15 15 14
17 17 17 17 17 17 16 16 16 16 16 16 16 17 17 17 17 17 17 17 17 17 17 17 16 16 16 16 16 16 16 15 15 15 15 15 15 15 15 15 15 15 14
17 17 17 17 17 17 16 16 16 16 16 16 16 16 16 17 17 17 17 17 17 17 17 17 17 16 16 16 16 16 16 16 15 15 15 15 15 15 15 15 15 15 14
17 17 17 17 17 16 16 16 16 16 16 16 16 16 16 16 17 17 17 17 17 17 17 17 17 17 16 16 16 16 16 16 16 15 15 15 15 15 15 15 15 15 14
17 17 17 17 17 17 16 16 16 16 16 16 16 16 16 16 16 16 16 16 16 16 16 17 17 16 16 16 16 16 16 16 16 15 15 15 15 15 15 15 15 15 15
17 17 17 17 17 17 16 16 16 16 16 16 16 16 16 16 16 16 16 16 16 16 16 16 16 16 16 16 16 16 16 16 15 15 15 15 15 15 15 15 15 15 15
17 17 17 17 17 17 17 16 16 16 16 16 16 16 16 16 16 16 16 16 16 16 16 16 16 16 16 16 16 16 15 15 15 15 15 15 15 15 15 15 15 15 14
17 17 17 17 17 17 17 16 16 16 16 16 16 16 16 16 16 16 15 15 15 15 15 15 16 16 16 15 15 15 15 15 15 15 15 15 15 15 15 15 15 14 14
17 17 17 17 17 17 16 16 16 16 16 16 16 16 16 15 15 15 15 15 15 15 15 15 15 15 15 15 15 15 15 15 15 15 15 15 15 15 14 14 14 14 14
17 17 17 16 16 16 16 16 16 16 16 16 16 15 15 15 15 15 15 15 15 15 15 15 15 15 15 15 15 14 14 14 15 15 15 15 14 14 14 14 14 14 14
17 16 16 16 16 16 16 16 16 16 16 16 15 15 15 15 15 15 15 14 14 14 14 14 14 14 14 14 14 14 14 14 14 14 14 14 14 14 14 14 14 14 14
16 16 16 16 16 16 16 16 16 16 15 15 15 15 15 15 14 14 14 14 14 14 14 14 13 13 13 13 13 13 13 13 13 13 13 13 13 13 13 13 13 13 13
16 16 16 16 16 16 16 15 15 15 15 15 15 15 14 14 14 14 14 13 13 13 13 13 13 13 13 13 12 12 12 12 12 12 12 12 13 13 13 13 13 13 13
16 16 16 15 15 15 15 15 15 15 15 14 14 14 14 14 14 13 13 13 13 13 12 12 12 12 12 12 12 12 12 11 12 12 12 12 12 12 12 12 12 12 12
15 15 15 15 15 15 14 14 14 14 14 14 14 13 13 13 13 13 12 12 12 12 12 12 11 11 11 11 11 11 11 11 11 11 11 11 11 11 11 11 11 11 11
Wind_Speed
5 5 5 6 5 5 4 3 3 2 1 3 6 9 8 10 11 11 12 15 15 14 13 13 12 12 11 11 11 11 11 11 11 12 11 11 10 10 10 10 10 10 9
8 6 4 4 5 5 5 5 4 3 2 3 5 8 9 10 11 11 11 13 14 14 13 13 12 11 11 11 10 10 10 11 11 11 11 11 10 10 10 10 10 9 9
10 7 4 3 4 5 5 4 3 3 2 3 4 5 7 9 10 10 11 11 12 13 13 12 12 12 11 11 10 10 10 10 11 11 11 11 10 10 10 10 10 9 9
12 8 4 3 5 5 4 3 2 2 2 3 3 3 4 6 8 10 10 11 11 10 11 12 12 12 11 11 11 11 11 11 11 12 12 11 11 11 11 10 10 10 10
12 9 5 4 6 4 3 3 3 3 3 3 3 3 3 4 5 8 7 10 11 11 11 12 12 12 12 11 11 11 11 11 12 12 12 12 12 12 11 11 11 11 11
12 10 5 5 6 4 3 3 3 2 3 3 2 2 1 2 3 4 6 8 10 11 12 11 11 11 12 11 11 11 11 11 12 12 12 12 12 12 12 12 12 12 12
11 9 5 4 4 4 4 4 3 3 2 2 3 3 3 2 1 2 3 4 6 10 12 11 11 10 10 11 12 11 11 11 11 12 12 12 12 13 13 13 13 13 13
11 9 6 5 5 5 5 4 3 3 1 2 4 3 2 4 3 1 1 4 4 6 8 11 12 11 11 10 11 12 11 10 10 11 12 12 12 13 13 14 14 14 14
10 9 8 6 5 5 4 4 4 4 2 0 2 4 4 3 2 3 1 2 3 4 4 8 11 12 12 12 11 11 12 11 11 10 11 11 12 12 13 14 14 14 14
9 10 9 7 5 4 5 4 4 3 4 2 1 0 2 4 3 1 3 2 2 4 5 5 8 11 13 13 13 13 13 12 11 10 10 11 11 11 12 12 13 13 14
7 9 9 7 5 4 5 5 4 4 3 3 2 1 1 2 2 3 2 2 2 3 4 4 6 9 12 13 13 14 14 13 12 11 11 11 11 11 11 11 12 12 12
4 6 8 7 6 5 5 5 5 5 4 4 3 2 3 2 2 3 3 3 3 4 3 3 4 7 11 13 14 14 15 14 13 12 12 11 11 11 10 11 11 11 12
4 6 6 5 5 5 5 5 5 4 4 4 3 2 2 3 3 3 3 2 2 3 2 3 4 8 11 13 14 16 16 16 15 14 14 13 12 12 11 11 11 12 12
6 6 6 6 7 7 6 5 4 4 4 4 4 3 2 1 2 3 4 4 1 2 2 4 3 6 11 14 16 17 15 17 17 17 16 15 14 13 13 13 13 13 12
6 7 7 7 6 7 6 6 4 4 4 4 3 3 2 1 1 2 3 4 5 2 3 4 3 4 9 13 15 15 16 18 19 18 18 17 16 15 15 15 14 14 14
6 8 7 7 7 7 6 6 4 4 5 4 3 3 2 1 1 1 2 2 3 4 4 4 4 4 5 9 14 16 17 17 19 19 19 19 18 18 18 17 17 16 16
8 8 8 8 8 7 7 7 6 6 6 5 3 4 4 3 2 1 1 2 2 3 3 4 3 2 3 4 5 11 13 13 15 19 20 21 21 21 20 20 20 19 19
8 9 8 8 8 8 7 8 7 7 7 6 6 4 5 3 3 1 1 1 1 2 4 4 3 2 3 4 3 4 7 10 13 15 18 20 21 21 21 21 21 21 20
8 7 7 8 8 8 8 8 7 6 7 7 6 6 5 4 4 3 2 2 2 1 2 3 3 2 2 2 1 3 4 5 8 12 14 17 18 19 20 20 21 21 21
8 8 7 7 7 7 7 7 6 6 5 5 5 5 5 6 6 5 4 4 3 2 2 2 2 3 3 3 1 3 3 3 4 6 8 10 12 16 18 19 20 20 20
9 8 6 5 5 5 6 6 6 6 5 4 3 3 4 5 6 5 4 4 3 3 2 2 3 2 3 2 3 3 4 4 4 3 3 4 5 6 10 14 17 18 19
6 6 6 6 5 4 5 7 6 5 4 4 3 2 2 2 3 4 4 4 5 4 4 3 3 3 4 3 3 2 2 2 4 2 1 4 2 4 7 10 13 15 17
6 6 6 5 5 4 6 7 8 5 4 4 4 3 2 2 3 2 3 3 3 3 4 4 4 4 4 4 3 3 3 4 5 4 1 5 3 5 7 10 12 12 13
5 5 5 4 3 3 4 5 6 5 4 3 3 3 3 2 1 2 2 1 2 3 3 3 4 5 5 4 4 4 4 4 5 4 3 4 4 4 5 7 10 10 12
5 4 4 4 3 2 2 3 4 3 3 2 2 2 2 1 1 1 2 1 2 3 4 4 5 5 6 6 4 1 2 2 4 4 2 3 3 3 4 5 7 9 9
6 6 5 5 5 4 5 5 5 4 4 2 2 3 3 2 2 2 2 1 1 3 3 4 3 5 5 5 4 2 2 2 3 4 3 2 3 2 4 4 3 5 7
Wind_Direction
162 165 172 176 181 183 176 175 178 170 150 138 136 141 145 151 157 163 171 174 171 169 169 170 171 170 169 170 168 167 166 166 165 163 161 160 159 160 159 157 155 155 153
164 160 162 165 171 175 168 161 157 135 124 116 116 132 142 152 163 169 172 178 179 177 177 176 177 177 176 176 177 176 176 175 174 172 170 169 168 168 168 168 166 165 164
159 153 153 155 164 159 147 128 117 102 106 109 114 132 146 156 165 172 176 178 184 187 186 185 186 185 185 184 185 184 184 184 184 183 182 180 179 179 179 178 177 177 176
156 149 148 153 151 136 126 114 104 92 91 112 126 140 147 158 168 175 179 183 185 190 194 194 193 192 193 193 194 193 193 193 192 192 192 191 192 193 192 190 190 190 190
156 149 145 146 140 123 115 127 108 114 118 125 143 138 147 159 169 176 180 189 193 197 199 202 200 199 201 200 200 199 198 200 200 200 200 201 202 203 204 203 202 201 201
153 148 145 143 133 120 116 116 116 103 127 142 122 110 126 169 167 174 188 191 196 203 206 207 205 209 211 208 206 206 207 208 208 208 208 209 207 208 210 211 212 212 212
153 149 145 141 137 138 149 139 119 105 96 112 85 46 7 6 156 175 177 180 194 201 202 205 206 208 215 217 214 213 213 215 213 213 214 215 216 216 218 218 219 219 220
158 160 150 151 146 138 135 131 122 117 89 114 121 99 36 353 346 337 181 187 193 190 193 204 206 208 212 215 217 217 216 216 218 218 220 222 222 223 223 223 224 224 225
161 158 157 152 149 147 152 150 137 133 137 73 136 141 144 207 287 326 292 197 180 183 199 203 206 211 212 215 218 220 219 218 218 221 223 224 224 224 226 227 227 228 228
162 162 158 155 150 149 155 160 146 140 138 137 34 144 163 154 150 265 321 302 211 200 204 204 204 209 211 211 214 217 218 217 218 219 220 220 222 224 228 230 231 231 232
165 165 161 154 151 153 159 152 137 134 138 146 153 142 102 92 121 143 222 287 300 252 220 206 199 202 207 209 210 214 216 217 217 219 220 220 221 224 228 230 231 231 234
166 165 162 157 159 159 162 158 146 140 143 144 143 139 147 151 180 160 182 223 244 265 244 222 206 205 207 209 212 215 216 216 216 218 220 221 224 227 229 232 231 232 236
173 179 167 162 163 169 169 158 152 156 158 153 159 161 164 181 177 161 156 186 235 278 283 249 225 213 212 210 214 217 217 217 219 220 222 224 227 230 234 235 234 235 239
180 176 170 171 172 172 172 161 157 170 168 164 165 161 166 187 169 165 160 151 151 306 303 270 263 222 216 210 216 216 216 219 221 222 224 227 231 234 237 237 237 238 240
178 176 173 176 179 177 171 164 171 182 171 174 178 178 186 208 157 165 160 157 153 184 256 266 263 242 218 214 218 213 216 221 223 226 229 232 234 237 238 239 240 240 241
173 170 174 178 181 180 175 171 172 183 180 189 190 184 194 207 178 128 141 151 154 164 217 254 246 248 219 220 222 216 221 226 229 232 235 238 239 241 242 242 242 243 244
176 178 180 180 181 181 180 179 187 186 190 204 208 201 215 202 185 161 134 136 151 159 204 267 264 263 212 226 218 222 232 235 238 239 241 243 245 246 247 247 247 247 247
181 181 179 182 188 187 184 186 196 196 197 206 214 208 222 211 202 207 180 190 199 189 190 243 278 272 234 230 224 225 234 238 241 247 246 248 249 249 250 251 251 251 252
176 177 175 185 191 191 191 193 195 196 200 206 206 203 211 196 210 218 210 212 228 218 183 203 259 274 271 262 235 250 249 253 254 253 252 252 252 253 254 256 256 255 255
174 177 180 185 191 191 192 194 192 194 195 202 204 201 203 196 204 209 214 219 218 224 212 210 251 273 271 275 236 247 269 262 260 265 260 258 259 259 260 260 261 260 259
179 175 175 177 180 183 192 188 187 189 188 196 206 210 217 210 207 204 211 215 212 220 229 229 247 268 272 274 252 243 250 272 275 260 269 273 267 267 268 267 264 262 260
169 161 169 173 174 191 187 183 183 187 181 186 202 219 226 216 213 202 203 196 191 203 221 226 240 245 258 255 254 246 247 270 283 282 265 280 261 266 268 264 264 264 263
165 162 174 172 178 193 186 180 180 175 170 182 192 195 215 214 201 199 216 212 207 216 207 204 226 239 245 241 239 253 241 237 248 258 248 277 274 269 273 275 273 270 268
165 167 168 174 178 201 186 176 176 168 164 178 186 184 191 225 210 189 190 213 249 260 245 223 230 246 248 247 234 236 243 258 268 266 209 250 269 266 279 277 276 275 276
144 142 143 146 138 105 113 137 148 138 132 128 118 115 138 137 336 160 135 206 292 302 297 273 262 269 274 273 259 251 279 272 281 280 233 224 264 275 275 271 273 278 285
131 123 105 97 102 88 74 92 121 122 118 104 74 63 70 77 51 86 118 134 298 302 327 342 338 320 312 308 290 239 235 248 268 279 273 247 266 289 296 281 277 284 290
Height
1556 1559 1560 1562 1563 1565 1566 1567 1568 1569 1570 1570 1571 1571 1572 1573 1574 1574 1575 1575 1576 1577 1578 1578 1579 1580 1581 1582 1583 1583 1584 1585 1586 1586 1587 1588 1588 1589 1590 1591 1591 1592 1593
1557 1559 1560 1562 1563 1565 1566 1567 1568 1569 1570 1571 1571 1572 1573 1573 1574 1575 1576 1576 1576 1577 1578 1578 1579 1580 1581 1582 1583 1584 1584 1585 1586 1586 1587 1588 1589 1590 1590 1591 1592 1592 1593
1556 1558 1560 1562 1563 1565 1566 1567 1568 1569 1570 1571 1572 1573 1573 1574 1575 1575 1576 1576 1577 1577 1578 1578 1579 1580 1581 1582 1583 1583 1584 1585 1586 1587 1587 1588 1589 1590 1590 1591 1592 1592 1593
1556 1558 1560 1561 1563 1564 1566 1567 1568 1569 1570 1571 1572 1573 1574 1574 1575 1576 1576 1577 1577 1577 1578 1578 1579 1580 1581 1581 1582 1583 1584 1584 1585 1586 1587 1588 1589 1589 1590 1591 1592 1592 1593
1555 1557 1559 1561 1562 1564 1565 1566 1568 1569 1570 1571 1572 1573 1574 1574 1575 1576 1576 1577 1577 1578 1578 1578 1579 1579 1580 1581 1581 1582 1583 1584 1585 1585 1586 1587 1588 1589 1589 1590 1591 1592 1592
1554 1556 1558 1560 1561 1563 1564 1566 1567 1568 1569 1571 1572 1573 1574 1574 1575 1575 1576 1576 1577 1577 1578 1578 1579 1579 1579 1580 1581 1581 1582 1583 1584 1584 1585 1586 1587 1588 1588 1589 1590 1590 1591
1553 1555 1557 1558 1560 1562 1563 1565 1566 1567 1569 1570 1571 1572 1573 1574 1575 1575 1576 1576 1576 1577 1577 1578 1578 1579 1579 1579 1580 1580 1581 1582 1582 1583 1583 1584 1585 1586 1587 1587 1588 1589 1590
1552 1554 1555 1557 1559 1560 1562 1564 1565 1566 1568 1569 1570 1571 1573 1575 1574 1575 1575 1575 1576 1576 1577 1577 1578 1578 1578 1579 1579 1579 1580 1580 1580 1581 1581 1582 1583 1584 1585 1585 1586 1587 1588
1550 1552 1554 1556 1557 1559 1561 1562 1564 1565 1567 1568 1570 1571 1572 1572 1573 1574 1574 1575 1575 1576 1576 1576 1577 1577 1577 1578 1578 1578 1578 1579 1579 1579 1579 1580 1581 1581 1582 1583 1584 1584 1585
1549 1551 1553 1555 1557 1558 1559 1561 1562 1564 1566 1567 1568 1570 1571 1571 1572 1573 1574 1574 1574 1575 1575 1575 1575 1576 1576 1576 1576 1577 1577 1577 1577 1577 1577 1578 1578 1579 1580 1580 1581 1581 1582
1547 1549 1552 1553 1555 1557 1558 1560 1561 1563 1564 1566 1567 1568 1569 1570 1571 1572 1572 1573 1573 1574 1574 1574 1574 1574 1574 1575 1575 1575 1575 1575 1575 1575 1575 1575 1576 1576 1577 1577 1577 1578 1579
1545 1548 1550 1552 1554 1555 1557 1558 1560 1561 1563 1565 1566 1567 1568 1569 1570 1570 1571 1571 1572 1572 1573 1573 1573 1573 1573 1573 1573 1573 1574 1574 1574 1574 1573 1573 1574 1574 1574 1574 1574 1575 1575
1543 1546 1548 1550 1552 1553 1555 1556 1558 1560 1561 1563 1564 1566 1567 1568 1568 1569 1569 1570 1570 1571 1571 1571 1572 1572 1572 1572 1572 1572 1572 1572 1572 1572 1571 1571 1571 1571 1571 1571 1572 1572 1572
1541 1544 1546 1548 1550 1551 1553 1554 1556 1558 1559 1561 1563 1564 1565 1566 1567 1567 1568 1568 1568 1569 1569 1569 1570 1570 1570 1570 1570 1570 1570 1570 1570 1569 1569 1569 1569 1569 1569 1569 1569 1569 1569
1539 1542 1544 1546 1548 1549 1551 1552 1554 1555 1557 1559 1560 1562 1563 1564 1565 1565 1566 1567 1567 1567 1567 1567 1567 1568 1568 1568 1568 1568 1568 1568 1568 1567 1567 1567 1566 1566 1566 1566 1566 1566 1566
1537 1539 1541 1543 1545 1547 1549 1550 1552 1554 1555 1556 1558 1559 1560 1562 1563 1563 1564 1564 1565 1565 1565 1565 1565 1565 1565 1565 1566 1566 1566 1566 1565 1565 1565 1564 1564 1563 1563 1563 1562 1562 1562
1534 1537 1539 1541 1543 1544 1546 1548 1550 1551 1553 1554 1555 1556 1558 1559 1560 1561 1561 1562 1562 1562 1562 1562 1562 1562 1562 1563 1563 1563 1563 1563 1563 1562 1562 1561 1561 1560 1560 1559 1559 1559 1558
1532 1534 1536 1538 1540 1542 1543 1545 1547 1549 1551 1552 1553 1554 1555 1556 1557 1558 1559 1559 1559 1560 1560 1559 1559 1559 1559 1560 1560 1560 1560 1559 1559 1559 1558 1558 1557 1557 1556 1556 1555 1555 1554
1529 1532 1534 1535 1537 1538 1540 1542 1545 1547 1548 1549 1551 1552 1553 1554 1554 1555 1556 1556 1556 1557 1556 1556 1556 1556 1556 1556 1556 1556 1556 1555 1555 1554 1554 1553 1553 1552 1552 1551 1551 1550 1549
1527 1529 1531 1532 1533 1535 1537 1539 1542 1544 1545 1547 1548 1549 1550 1551 1551 1552 1552 1553 1553 1553 1553 1553 1552 1552 1552 1552 1552 1552 1551 1551 1550 1550 1549 1549 1548 1547 1547 1546 1545 1545 1544
1525 1527 1529 1529 1531 1532 1534 1537 1539 1541 1542 1544 1545 1546 1547 1548 1548 1549 1549 1549 1549 1549 1549 1549 1548 1548 1548 1548 1548 1547 1546 1546 1545 1545 1544 1543 1542 1541 1541 1540 1539 1539 1538
1523 1525 1526 1528 1529 1531 1532 1534 1537 1538 1539 1540 1542 1543 1543 1544 1544 1545 1545 1545 1545 1545 1545 1545 1544 1544 1543 1543 1543 1542 1541 1541 1539 1540 1538 1537 1537 1535 1535 1534 1533 1532 1531
1520 1522 1525 1526 1527 1529 1531 1532 1534 1535 1536 1537 1538 1539 1540 1540 1541 1541 1541 1541 1541 1540 1541 1541 1540 1539 1539 1538 1538 1537 1536 1535 1534 1533 1532 1530 1530 1529 1529 1528 1527 1526 1525
1518 1520 1522 1524 1525 1527 1528 1529 1530 1532 1532 1533 1534 1535 1536 1536 1537 1537 1537 1536 1536 1536 1536 1535 1535 1534 1534 1533 1532 1532 1530 1529 1528 1528 1526 1524 1523 1522 1522 1521 1521 1520 1519
1515 1517 1519 1521 1523 1524 1525 1526 1528 1528 1529 1530 1531 1532 1532 1532 1533 1533 1533 1533 1532 1532 1532 1531 1530 1530 1529 1528 1527 1526 1525 1524 1522 1521 1521 1519 1517 1516 1515 1514 1514 1513 1512
1513 1515 1516 1518 1520 1521 1522 1523 1525 1525 1526 1527 1528 1528 1529 1529 1529 1529 1529 1529 1528 1528 1528 1527 1526 1525 1525 1524 1523 1522 1520 1519 1517 1516 1515 1514 1512 1510 1507 1507 1506 1506 1504